Regional Weather Roundup
Issued by NWS

Home | Current Version | Previous Version | Text Only | Print | Product List | Glossary Off
Versions: 1 2 3 4 5 6 7 8 9 10 11 12 13 14 15 16 17 18 19 20 21 22 23 24 25 26 27 28 29 30 31 32 33 34 35 36 37 38 39 40 41 42 43 44 45 46 47 48 49 50

000
ASUS45 KBOU 170507
RWRCO

WEATHER ROUNDUP FOR COLORADO
NATIONAL WEATHER SERVICE DENVER/BOULDER CO
1100 PM MDT TUE SEP 16 2014

NOTE: "FAIR" INDICATES FEW OR NO CLOUDS BELOW 12000 FEET WITH NO
SIGNIFICANT WEATHER AND/OR OBSTRUCTIONS TO VISIBILITY.

COZ001>005-013-030-031-170600-
...NORTHWEST COLORADO...

CITY           SKY/WX    TMP DP  RH WIND       PRES   REMARKS
CRAIG          PTCLDY    53  41  63 NE3       30.20S
HAYDEN         PTCLDY    57  34  41 E5        30.22S
MEEKER         CLEAR     53  40  61 NE8       30.23R
MOUNT WERNER   NOT AVBL
STEAMBOAT SPGS PTCLDY    52  38  59 W5        30.25S
WALDEN         PTCLDY    41  32  70 SE7       30.33F
$$

COZ006>008-011-170600-
...WEST CENTRAL VALLEYS...

CITY           SKY/WX    TMP DP  RH WIND       PRES   REMARKS
GRAND JUNCTION CLEAR     67  42  40 E6        30.08R
MONTROSE       CLEAR     63  42  46 SE9       30.18S
EAGLE          CLEAR     55  41  58 CALM      30.26S
RIFLE          CLEAR     62  41  46 SE6       30.16R
DELTA          CLEAR     67  44  43 N7        30.13S
NUCLA          CLEAR     64  37  36 E12       30.21R
$$

COZ017>023-064>068-170600-
...SOUTHWEST COLORADO...

CITY           SKY/WX    TMP DP  RH WIND       PRES   REMARKS
DURANGO        PTCLDY    62  45  53 NE3       30.25S
CORTEZ         CLEAR     59  50  72 E5        30.19S
PAGOSA SPRINGS MOCLDY    56  42  59 CALM      30.34S
TELLURIDE      NOT AVBL
WOLF CREEK PAS PTCLDY    43  37  81 SW15      30.61S
$$

COZ009-010-012-014-032>034-037-058>063-170600-
...CENTRAL COLORADO...

CITY           SKY/WX    TMP DP  RH WIND       PRES   REMARKS
ASPEN          CLEAR     53  35  50 S7          N/A
BUENA VISTA    CLEAR     55  32  40 W8        30.33S
COPPER MTN     CLEAR     54  30  40 W5        30.62F
BERTHOUD PASS  FAIR      43  41  93 NW10      30.66F
COTTONWOOD PAS CLEAR     59  27  29 N3        30.47S
GUNNISON       CLEAR     54  36  50 N3        30.33S
KREMMLING      CLEAR     50  37  62 CALM      30.32S
LEADVILLE      PTCLDY    45  30  55 W3        30.46S
SALIDA         CLEAR     57  38  48 SW9       30.37R
SUNLIGHT       CLEAR     55  34  44 NW3       30.55S
WILKERSON PASS NOT AVBL
$$

COZ069>075-170600-
...SAN LUIS VALLEY/SANGRE DE CRISTO MOUNTAINS...

CITY           SKY/WX    TMP DP  RH WIND       PRES   REMARKS
ALAMOSA        PTCLDY    54  43  66 E8        30.29R
LA VETA PASS   NOT AVBL
SAGUACHE       MOCLDY    59  36  41 E3        30.33R
$$

COZ035-036-038>040-170600-
...NORTHERN COLORADO FRONT RANGE...

CITY           SKY/WX    TMP DP  RH WIND       PRES   REMARKS
DENVER INTL AP PTCLDY    64  38  38 S9        30.12S
DMNS CITY PARK   N/A     65  45  49 S5        30.13S
AURORA         PTCLDY    61  39  43 S10       30.16S
FRONT RANGE AP CLEAR     63  41  45 S9        30.14S
ERIE MUNI ARPT CLEAR     59  44  56 CALM      30.11S
BOULDER MUN AP CLEAR     64  39  39 SW6       30.12S
CENTENNIAL     PTCLDY    64  39  39 S10       30.17S
BROOMFIELD     NOT AVBL
FORT COLLINS   CLEAR     66  41  39 S3        30.12S
LONGMONT       CLEAR     59  46  61 W5        30.12F
$$

COZ041-046-047-076>085-087-088-170600-
...PIKES PEAK/PALMER DIVIDE AND SOUTHERN FOOTHILLS...

CITY           SKY/WX    TMP DP  RH WIND       PRES   REMARKS
COLO. SPRINGS  PTCLDY    66  36  32 N5        30.21S
A. F. ACADEMY  PTCLDY    53  40  61 N6        30.23S
ELLICOTT       NOT AVBL
FALCON         CLEAR     59  34  38 N7        30.26S
FORT CARSON    MOCLDY    65  41  41 NW8       30.18R
LIMON          CLEAR     53  40  61 CALM      30.14F
MONUMENT HILL  CLEAR     55  34  44 S10       30.25F
TRINIDAD       CLEAR     68  48  48 W20       30.16R
$$

COZ042>045-048>051-090-091-170600-
...NORTHEAST COLORADO...

CITY           SKY/WX    TMP DP  RH WIND       PRES   REMARKS
GREELEY ARPT   CLEAR     57  39  51 W6        30.10S
AKRON          CLEAR     63  43  48 S10       30.08S
BURLINGTON     CLEAR     56  48  74 CALM      30.05F
WRAY           CLEAR     60  49  68 W3        30.01F
STERLING       CLEAR     55  50  82 W7        30.03S
HOLYOKE        CLEAR     59  52  77 SW5       30.02F
FORT MORGAN    CLEAR     59  41  51 S3        30.08S
$$

COZ086-089-092>099-170600-
...SOUTHEAST COLORADO...

CITY           SKY/WX    TMP DP  RH WIND       PRES   REMARKS
PUEBLO         CLEAR     64  37  36 SW3       30.09R
LA JUNTA       CLEAR     69  47  45 SW12      30.04S
LAMAR          CLEAR     63  53  70 N3        30.00S
SPRINGFIELD      N/A     62  58  86 SW8       30.07F
$$


USA.gov is the U.S. government's official web portal to all federal, state and local government web resources and services.